Weather in Novi Sad

Serbia     45°15′53″N   19°50′12″E
temp.,
°C
wind,
m/s
gust,
m/s
humid.,
%
clouds,
%
prec.,
mm/h
press.,
hPa
HPBL,
m
27 june, mon
mon2723:00+23s11550 0.0 101611
02:00+21sw11600 0.0 101611
05:00+21ne00640 0.0 101711
08:00+25ese22550 0.0 1017258
11:00+30ese22400 0.0 10171562
14:00+32e22310 0.0 10162145
17:00+32e32325 0.0 10161755
20:00+27ese22455 0.0 101543
28 june, tue
tue2823:00+25se22460 0.0 101634
02:00+24se22500 0.0 101520
05:00+22ese2355100 0.0 101644
08:00+26e23447 0.0 1016212
11:00+31e233423 0.0 1017891
14:00+34ene3327100 0.0 10162052
17:00+34ene332785 0.0 10152145
20:00+29e1140100 0.0 101419
29 june, wed
wed2923:00+26n1141100 0.0 101511
02:00+23sse23555 0.0 101446
05:00+22se235816 0.0 101347
08:00+27se344812 0.0 1013249
11:00+33se45325 0.0 1013947
14:00+36ese55234 0.0 10112190
17:00+36ese46210 0.0 10082166
20:00+27s234441 0.0 1009118
30 june, thu
thu3023:00+26sse1141100 0.0 101013
02:00+24sse11477 0.0 101125
05:00+22ssw11552 0.0 101116
08:00+26wsw11473 0.0 1012329
11:00+32se11350 0.0 10121118
14:00+36e12280 0.0 10111885
17:00+36n23230 0.0 10103001
20:00+31e22370 0.0 100926
1 july, fri
fri123:00+27s22432 0.0 101121
02:00+25sw224853 0.0 101148
05:00+24s115282 0.0 101222
08:00+27s125078 0.0 1013160
11:00+34sse113015 0.0 10131070
14:00+37ese34210 0.0 10113277
17:00+38se34184 0.0 10103720
20:00+31se233261 0.2 101054